Location: Cuiry
(49.3858°N, 3.7708°E)
Time: 23:40:47
(UTC+00:00)

Cosmos 1656 - Pass Details

Date: 12 January 2026
Orbit: 797 x 848 km, 71.1° (Epoch: 9 February)

Event Time Altitude Azimuth Distance (km) Brightness Sun altitude
Rises 18:27:35 0° 332° (NNW) 3,405 7.1 -21.6°
Reaches altitude 10° 18:30:05 10° 336° (NNW) 2,460 6.3 -22.1°
Maximum altitude 18:35:42 65° 58° (ENE) 911 3.6 -23.0°
Enters shadow 18:36:55 51° 113° (ESE) 1,035 3.8 -23.2°
